www.pogodaiklimat.ru

Погода и климат >> Архив погоды >> Россия >> Чукотка >> Эгвекинот


АРХИВ ПОГОДЫ в Эгвекиноте

Время (UTC), дата Ветер
(напр.,м/с)
 
Видим.   Явления Облачность Т
(С)
Тd
(С)
f
(%)
Тe
(С)
Тes
(С)
Комфортность P
(гПа)
Po
(гПа)
Тmin
(С)
Tmax
(С)
R
(мм)
R24
(мм)
S
(см)
09 19.04 Ю 2
{3}
4000 м слаб. снег 10/3 1000 м
[Sc As op]
-11.6 -14.6 78 -16 -16 1013.6 1010.7
12 19.04 Ю 2
{3}
4000 м слаб. снег 10/3 1000 м
[Sc As op]
-11.6 -13.9 83 -16 -16 1012.4 1009.5
15 19.04 штиль 0
{3}
4000 м слаб. снег 10/0
[As op]
-12.9 -15.1 84 -13 -13 1013.0 1010.0
18 19.04 С 4
{8}
20 км {снег} 8/0
[Ci fib]
-8.5 -15.7 56 -15 -15 1013.6 1010.7 -13.2 0.6 96
21 19.04 С 7
{10}
20 км 9/0
[Ci fib]
-8.1 -16.0 53 -17 -15 1015.0 1012.1 -13.2
00 20.04 СЗ 5
{10}
20 км 10/0
[Ci fib]
-6.7 -17.0 44 -14 -10 1015.9 1013.0
03 20.04 Ю 3
{8}
20 км 10/0
[Cs]
-7.9 -14.3 60 -13 -10 1017.1 1014.2
06 20.04 Ю 2
{5}
20 км ясно -10.7 -15.6 67 -15 -14 1017.8 1014.9 -6.6
09 20.04 штиль 0
{3}
20 км 10/3 1500 м
[Sc Ac und]
-14.1 -17.9 73 -14 -14 1019.0 1016.0
12 20.04 штиль 0
{2}
20 км 10/5 1500 м
[Sc Ac und]
-13.8 -17.3 75 -14 -14 1018.5 1015.5
15 20.04 ЮВ 1
{2}
4000 м слаб. снег 10/0
[As op]
-14.1 -17.6 75 -17 -17 1017.6 1014.6
18 20.04 штиль 0
{2}
4000 м слаб. снег 10/0
[As op]
-13.5 -17.5 72 -14 -13 1017.4 1014.4 -14.7 0.2 95
21 20.04 Ю 1
{2}
10 км {снег} 10/0
[Ac trans Ci sp]
-12.0 -16.6 69 -14 -10 1017.0 1014.1 -14.7
00 21.04 штиль 0
{3}
20 км {снег} 10/0
[Ci fib]
-9.4 -15.4 62 -10 -1 1017.1 1014.2
03 21.04 Ю 2
{3}
20 км 10/0
[Ac trans Ci sp]
-10.1 -14.4 71 -15 -11 1017.0 1014.1
06 21.04 штиль 0
{3}
10 км 10/3 1000 м
[Sc Ac trans Ci sp]
-11.1 -14.7 75 -11 -11 1017.3 1014.4 -7.4 0.0
09 21.04 штиль 0
{3}
10 км 4/1 1000 м
[Sc Ci fib]
-14.2 -17.1 79 -14 -14 1018.1 1015.1
12 21.04 штиль 0
{2}
20 км 3/0
[Ci fib]
-14.5 -18.8 70 -15 -15 1018.3 1015.3
15 21.04 штиль 0
{3}
20 км 8/0
[Ci fib]
-18.2 -21.2 77 -18 -18 1018.5 1015.4
18 21.04 штиль 0
{3}
10 км 10/0
[Ac lent Ci fib]
-17.3 -21.2 72 -17 -16 1018.2 1015.2 -19.3 95
21 21.04 С 5
{8}
10 км 10/0
[Ac und]
-9.6 -18.4 49 -17 -16 1018.1 1015.1 -19.3
00 22.04 СЗ 6
{10}
10 км 10/0
[Ac trans Cc]
-8.8 -18.1 47 -17 -15 1017.4 1014.5
03 22.04 СЗ 8-15
{15}
10 км 10/1 1000 м
[Sc Ac trans Ci sp]
-9.6 -17.8 51 -19 -19 1017.2 1014.3
06 22.04 СЗ 10-15
{16}
10 км позёмок 10/0
[Ac trans Ci sp]
-11.4 -20.7 46 -22 -22 1019.2 1016.2 -8.6
09 22.04 СЗ 9-15
{16}
10 км позёмок 10/3 1000 м
[Sc Ac trans Ci sp]
-11.5 -20.3 48 -22 -22 1020.0 1017.0
12 22.04 СЗ 11-17
{19}
10 км позёмок 10/1 1000 м
[Sc Ci fib]
-11.4 -19.8 50 -23 -23 1019.5 1016.5
15 22.04 С 10-17
{20}
20 км позёмок 6/1 1000 м
[Sc Ci fib]
-10.7 -19.1 50 -21 -21 1019.5 1016.5
18 22.04 С 11-21
{21}
20 км позёмок 3/0
[Ci fib]
-9.7 -18.4 49 -21 -21 1019.5 1016.5 -12.0 95
21 22.04 СЗ 13-20
{23}
4000 м метель 10/0
[Ci fib]
-9.9 -15.6 63 -22 -22 1018.9 1015.9 -12.0
00 23.04 СЗ 13-20
{23}
4000 м метель 8/0
[Ci sp]
-7.9 -14.9 57 -19 -19 1018.3 1015.3
03 23.04 СЗ 16-24
{24}
4000 м метель 10/0
[Ci sp]
-6.4 -13.6 57 -18 -18 1017.6 1014.7
06 23.04 СЗ 15-22
{24}
4000 м метель 10/0
[Ci fib]
-6.5 -14.3 54 -18 -18 1018.6 1015.7 -6.2
09 23.04 СЗ 8-15
{23}
20 км позёмок 5/0
[Ci fib]
-7.1 -16.3 48 -16 -16 1020.2 1017.3
12 23.04 СЗ 10-15
{19}
20 км позёмок 3/0
[Ci fib]
-7.4 -15.2 54 -17 -17 1020.7 1017.8
15 23.04 СЗ 8-15
{15}
20 км позёмок 3/0
[Ci fib]
-7.7 -15.6 53 -17 -17 1020.7 1017.7
18 23.04 С 8-13
{16}
20 км {метель} ясно -6.7 -15.1 51 -15 -15 1020.6 1017.7 -7.9 94
21 23.04 С 9-14
{14}
20 км ясно -4.8 -12.7 54 -13 -13 1019.9 1017.0 -7.9
00 24.04 СЗ 7-14
{16}
20 км ясно -2.9 -13.2 45 -10 -8 1019.4 1016.5
03 24.04 С 9-16
{16}
20 км ясно -2.8 -12.6 47 -11 -10 1018.7 1015.8
06 24.04 ЮЗ 7
{16}
20 км ясно -7.6 -11.6 73 -16 -16 1019.0 1016.0 -2.3
09 24.04 З 1
{11}
20 км ясно -9.4 -13.4 73 -12 -12 1020.7 1017.7
12 24.04 Ю 2
{3}
20 км ясно -13.6 -17.0 75 -18 -18 1021.5 1018.5
15 24.04 штиль 0
{2}
20 км ясно -15.1 -17.8 80 -15 -15 1021.5 1018.5
18 24.04 Ю 3
{4}
20 км ясно -16.2 -18.7 81 -23 -22 1022.0 1019.0 -16.9 94
21 24.04 штиль 0
{3}
20 км 1/0
[Ci fib]
-8.9 -14.3 65 -9 -2 1022.8 1019.9 -16.9
00 25.04 штиль 0
{2}
20 км 1/0
[Ci fib]
-5.6 -12.4 59 -6 +5 1022.8 1019.9
03 25.04 Ю 2
{4}
20 км 3/1 300 м
[St Ci fib]
-6.7 -10.7 73 -11 -6 1022.9 1020.0
06 25.04 ЮЗ 1
{3}
20 км 3/3 300 м
[Sc]
-6.9 -11.0 73 -9 -8 1023.0 1020.1 -5.0
09 25.04 штиль 0
{2}
10 км 10/10 300 м
[St]
-8.0 -10.9 80 -9 -9 1024.1 1021.1
12 25.04 З 2
{4}
10 км 10/10 300 м
[St]
-8.9 -11.2 83 -13 -13 1024.7 1021.7
15 25.04 З 2
{4}
10 км 10/10 200 м
[St]
-9.9 -12.1 84 -14 -14 1024.9 1021.9
18 25.04 Ю 2
{4}
2000 м дымка 10/10 270 м
[St]
-10.5 -12.2 87 -15 -15 1025.5 1022.5 -10.5 93
21 25.04 ЮВ 1
{2}
4000 м в посл. час туман 10/10 180 м
[St]
-8.9 -11.1 84 -11 -11 1025.8 1022.8 -10.5
00 26.04 Ю 1
{2}
10 км {туман} 9/9 300 м
[Sc]
-5.6 -9.8 72 -8 -7 1025.8 1022.9
03 26.04 ЮВ 3
{5}
10 км 1/1 300 м
[St]
-5.2 -9.3 73 -11 -6 1025.3 1022.4
06 26.04 штиль 0
{4}
20 км 8/5 660 м
[Sc Ci fib]
-5.1 -9.4 72 -6 -5 1024.9 1022.0 -4.4

 

Местоположение метеостанции Эгвекинот (Чукотка, Россия): широта 66.35 долгота -179.00 высота над уровнем моря 22 м.

В архиве по умолчанию представлена погода в Эгвекиноте за последнюю неделю. Архивные данные за месяц целиком и за предыдущие месяцы, начиная с января 2011 года, Вы можете получить, выбрав интересующий диапазон дат из раскрывающегося списка и нажав кнопку "Ввод!".


*Определитесь, кто Вы:
робот инопланетянин человек

Внимание! Время в таблицах - всемирное. Для получения местного времени необходимо прибавить поправку, которая равна 12 ч.

Смотрите также архив погоды в соседних городах и на ближайших метеорологических станциях:

Погода на Мысе Ванкарем (Чукотка, Россия) (239 км)
Погода на Мысе Шмидта (Чукотка, Россия) (280 км)
Погода в Уэлене (Чукотка, Россия) (448 км)
Погода на Острове Врангеля (Чукотка, Россия) (517 км)

Пояснения к столбцам:

Ветер - указаны скорость ветра в м/с - средняя за 10 мин, порывы в срок и между сроками (в фигурных скобках) и направление, откуда дует ветер: С - северный, СВ - северо-восточный, В - восточный, ЮВ - юго-восточный, Ю - южный, ЮЗ - юго-западный, З - западный, СЗ - северо-западный.
Видимость - горизонтальная дальность видимости в метрах или километрах. При видимости от 1 до 10 км при отсутствии осадков обычно наблюдается дымка, при ухудшении видимости до 1 км и менее - туман. В сухую погоду видимость может ухудшаться дымом, пылью или мглою.
Явления - указаны атмосферные явления, наблюдавшиеся в срок или в последний час перед сроком; фигурными скобками обозначены явления, наблюдавшиеся между сроками (за 1-3 часа до срока); квадратными скобками обозначены град или гололедные отложения с указанием их диаметра в мм.
Облачность - указаны через наклонную черту общая и нижняя облачность в баллах и высота нижней границы облаков в метрах; квадратными скобками обозначены формы облаков: Ci - перистые, Cs - перисто-слоистые, Cc - перисто-кучевые, Ac - высококучевые, As - высокослоистые, Sc - слоисто-кучевые, Ns - слоисто-дождевые, Cu - кучевые, Cb - кучево-дождевые. Подробнее классификацию облаков см. в Атласе облаков (PDF).
T - Температура воздуха - температура, измеренная на высоте 2 м над землей.
Td - Температура точки росы - температура, при понижении до которой содержащийся в воздухе водяной пар достигнет насыщения.
f - Относительная влажность воздуха - влажноcть воздуха, измеренная на высоте 2 м над землей.
Te - Эффективная температура - температура, которую ощущает одетый по сезону человек в тени. Характеристика душности погоды. При расчете учитывается влияние влажности воздуха и скорости ветра на теплоощущения человека.
Tes - Эффективная температура на солнце - температура, которую ощущает человек, с поправкой на солнечный нагрев. Характеристика знойности погоды. Зависит от высоты солнца над горизонтом, облачности и скорости ветра. Ночью, в пасмурную погоду, а также при ветре 12 м/с и более поправка равна нулю.
P - Атмосферное давление - приведенное к уровню моря атмосферное давление.
Po - Атмосферное давление - измеренное на уровне метеостанции атмосферное давление.
Tmin - Минимальная температура - минимум температуры воздуха на высоте 2 м над землей.
Tmax - Максимальная температура - максимум температуры воздуха на высоте 2 м над землей.
R - Количество осадков - Количество выпавших осадков за период времени, мм. При наведении курсора мыши на число - период времени, за который выпало указанное количество осадков.
R24 - Количество осадков - Количество выпавших осадков за 24 часа, мм.
S - Снежный покров - Высота снежного покрова, см. При наведении курсора мыши на число - состояние снежного покрова и степень покрытия местности в баллах.